Lid_Strength_Index
-1 -1 -1 -1 -1 -1 -1 -1 -1 -1 -1 0 0 0 1 2 2 5 8 5 5 0 3 7 5 6 7 10 7 7 10 12 11 11 11 9 9 9 8 7 7 6 5 4 2
-1 -1 -1 -1 -1 -1 -1 -1 -1 -1 -1 -1 -0 0 1 2 5 7 4 1 0 0 7 6 6 6 10 10 8 10 11 10 9 10 10 9 9 9 9 9 8 6 4 3 3
-1 -1 -1 -1 -1 -1 -1 -1 -1 -1 -1 -1 -1 0 1 3 7 7 2 1 1 0 6 6 6 7 11 11 10 10 11 9 10 9 8 9 10 9 9 11 8 7 6 4 4
-1 -1 -1 -1 -1 -1 -1 -1 -1 -1 -1 -1 -0 0 1 4 11 5 1 0 1 2 7 7 8 9 12 13 9 11 9 9 8 9 8 9 9 10 10 10 7 4 4 4 4
-1 -1 -1 -1 -1 -1 -1 -1 -1 -1 -1 -1 -1 -1 4 8 7 4 1 0 2 4 7 9 9 8 12 10 9 11 10 9 9 9 9 8 10 10 10 9 7 5 4 4 4
-1 -1 -1 -1 -1 -1 -1 -1 -1 -1 -1 -1 -1 -0 5 12 6 2 2 3 5 7 8 8 8 8 11 9 10 9 9 10 10 10 9 9 11 10 10 9 7 5 5 5 4
-0 -1 -1 -1 -1 -1 -1 -1 -1 -1 -1 -1 -1 2 7 9 6 4 3 5 6 7 8 8 8 9 9 10 8 9 11 11 11 10 10 10 12 11 10 9 9 8 6 5 5
-0 -0 -0 -1 -1 -1 -1 -1 -1 -1 -1 -1 -1 4 8 4 6 6 6 7 6 6 7 7 7 9 9 9 10 11 12 14 11 10 10 10 13 10 10 10 10 10 10 8 6
-0 -0 -0 -0 -0 -1 -1 -1 -1 -1 -1 -1 3 6 9 3 7 6 7 9 8 8 8 8 8 10 10 12 14 13 16 15 13 11 11 12 13 11 10 10 11 11 10 9 7
-0 -0 -0 -0 -0 -1 -1 -1 -1 -1 -0 1 2 9 8 8 6 5 6 6 8 9 10 10 11 13 14 15 17 16 16 14 14 12 12 13 13 12 11 11 11 11 11 9 9
-0 -0 -0 -0 -1 -1 -0 1 5 6 5 9 8 9 8 6 5 6 6 7 8 9 13 11 14 15 15 13 12 12 14 14 14 12 12 13 13 12 11 11 11 12 11 11 10
-0 -0 -0 -1 -1 -1 1 7 6 6 10 7 7 7 6 6 9 8 6 9 10 13 12 13 15 13 11 10 11 13 14 15 13 12 13 13 13 12 12 12 11 11 11 10 11
-0 -0 -0 -0 -0 1 4 5 3 5 9 7 7 7 7 6 9 9 7 9 11 13 13 14 13 11 10 12 12 13 14 15 14 13 13 15 15 13 12 12 11 11 11 11 11
-0 -0 -0 -0 2 3 4 1 2 3 12 11 9 7 6 6 9 6 6 8 10 12 11 12 11 12 12 12 11 14 12 12 13 15 18 15 20 16 14 13 12 11 12 11 9
-0 0 0 0 3 4 3 1 2 4 18 10 9 4 6 9 9 9 7 9 12 12 12 14 13 12 14 12 11 13 11 12 13 14 17 17 19 17 15 14 13 12 11 11 10
0 0 0 2 2 2 2 1 3 13 19 12 9 9 9 10 10 8 9 8 9 11 12 13 11 10 11 11 10 10 12 13 14 15 19 18 18 19 16 14 13 12 11 10 10
2 1 1 2 5 2 2 4 13 18 10 13 13 10 11 12 11 11 11 12 14 15 15 14 13 11 11 12 11 11 15 19 20 20 20 19 19 17 14 13 12 11 11 10 10
2 -0 1 2 2 2 3 9 17 14 13 11 11 10 13 12 12 12 12 14 12 13 14 17 17 13 11 12 13 14 14 19 22 21 20 18 19 16 14 12 11 10 10 10 10
2 3 4 5 2 2 7 15 16 13 11 12 11 13 14 12 13 13 13 13 12 12 15 16 16 12 11 11 11 14 15 13 17 23 20 19 18 14 13 12 11 11 10 11 10
6 6 7 4 3 4 10 14 13 10 9 10 14 13 16 13 14 15 14 12 13 11 12 13 16 12 12 11 11 13 12 16 16 21 23 20 20 18 15 14 12 11 11 11 10
8 10 7 5 3 7 13 13 11 8 8 11 13 14 14 14 14 15 14 13 11 11 10 13 13 14 13 13 14 14 14 14 14 17 21 23 19 15 13 13 12 11 10 10 10
9 13 7 5 9 10 12 11 9 9 7 9 10 11 12 12 14 14 14 13 9 10 12 12 13 16 15 12 12 12 13 13 16 18 18 18 18 13 13 12 10 11 10 10 9
12 12 7 7 14 13 11 10 9 9 9 9 10 10 11 12 14 13 13 11 10 10 12 11 14 17 16 14 12 13 13 12 13 16 18 20 18 13 13 13 11 10 10 9 9
10 13 11 11 12 12 13 12 12 8 8 8 9 9 11 12 11 13 12 11 10 10 8 8 12 15 16 16 14 15 14 13 13 17 18 18 16 14 13 12 11 11 9 9 9
10 12 11 14 13 12 11 11 12 12 9 9 11 10 11 13 12 12 11 11 10 9 10 10 16 14 14 13 13 13 13 13 13 12 15 14 15 14 13 12 10 9 9 9 9
11 13 11 12 12 12 12 13 12 12 11 11 12 10 10 12 12 13 11 11 12 11 12 11 16 14 16 14 13 15 13 12 12 13 13 13 14 12 11 10 10 9 9 9 9
9 9 10 11 12 14 14 12 11 10 11 10 10 10 11 10 9 9 8 8 9 10 12 12 14 16 16 16 15 16 15 14 13 12 13 15 13 12 12 11 10 9 8 8 8